Back to catalog

STARLINK-35103

AliveCommunicationsVLEO
NORAD 65633·PAYLOAD·🇺🇸 United States

Launched Sep 18, 2025 from Cape Canaveral Space Force Station

Loading…

Next Passes (next 24 hours)

TLE

FreshSource: CelesTrak SupGP

Epoch: Sep 14, 2026, 21:15 UTC

1 65633C 25210M   26257.88590278 -.00059725  00000+0 -17646-2 0  2574
2 65633  53.1565 143.9029 0001284  89.0637 128.9161 15.34420691    10

Track STARLINK-35103 in real time with AllMySat

Download on the App Store